When you browse on this site, cookies collect data to enhance your experience and personalize the content and advertising you see.
Visit our Privacy Policy to learn more. By continuing to use the site, you agree to this use of cookies and data.
  • In Czech Republic
  • List of Countries
  • For 7 days
  • Water Temperature
  • Satellite Maps
  • Weather Map
  • Weather Widgets
  • user-avatar
    Login

    Hourly Weather Graz

    Today, 22 July, Monday

    Time Temperature Precipitation Wind Pressure Humidity
    00:00 +20°C° 0 mm 1 mps 730 mmHg 87%
    01:00 +19°C° 0 mm 1 mps 730 mmHg 87%
    02:00 +19°C° 0.1 mm 1 mps 730 mmHg 87%
    03:00 +19°C° 0.1 mm 1 mps 730 mmHg 87%
    04:00 +19°C° 0.1 mm 1 mps 729 mmHg 86%
    05:00 +20°C° 0.1 mm 1 mps 730 mmHg 84%
    06:00 +21°C° 0.1 mm 1 mps 730 mmHg 81%
    07:00 +21°C° 0 mm 0 mps 731 mmHg 77%
    08:00 +23°C° 0.1 mm 0 mps 731 mmHg 69%
    09:00 +25°C° 0.1 mm 0 mps 731 mmHg 62%
    10:00 +29°C° 0.1 mm 1 mps 731 mmHg 54%
    11:00 +29°C° 0.1 mm 1 mps 731 mmHg 52%
    12:00 +29°C° 0.1 mm 1 mps 730 mmHg 50%
    13:00 +30°C° 0.1 mm 1 mps 730 mmHg 49%
    14:00 +30°C° 0 mm 1 mps 730 mmHg 49%
    15:00 +29°C° 0 mm 1 mps 730 mmHg 49%
    16:00 +29°C° 0 mm 1 mps 730 mmHg 50%
    17:00 +28°C° 0.1 mm 1 mps 729 mmHg 58%
    18:00 +26°C° 0.1 mm 1 mps 729 mmHg 66%
    19:00 +23°C° 0.1 mm 0 mps 729 mmHg 74%
    20:00 +24°C° 0 mm 1 mps 729 mmHg 76%
    21:00 +23°C° 0 mm 1 mps 730 mmHg 79%
    22:00 +21°C° 0 mm 1 mps 730 mmHg 81%
    23:00 +21°C° 0 mm 1 mps 730 mmHg 81%

    Tomorrow, 23 July, Tuesday

    Time Temperature Precipitation Wind Pressure Humidity
    00:00 +21°C° 0 mm 1 mps 729 mmHg 80%
    01:00 +21°C° 0 mm 1 mps 729 mmHg 80%
    02:00 +21°C° 0 mm 1 mps 729 mmHg 81%
    03:00 +20°C° 0 mm 1 mps 729 mmHg 82%
    04:00 +20°C° 0 mm 1 mps 729 mmHg 83%
    05:00 +21°C° 0 mm 1 mps 729 mmHg 80%
    06:00 +22°C° 0 mm 1 mps 729 mmHg 76%
    07:00 +24°C° 0 mm 1 mps 729 mmHg 72%
    08:00 +26°C° 0 mm 1 mps 729 mmHg 63%
    09:00 +29°C° 0 mm 1 mps 729 mmHg 55%
    10:00 +29°C° 0 mm 0 mps 729 mmHg 46%
    11:00 +30°C° 0 mm 0 mps 729 mmHg 44%
    12:00 +31°C° 0 mm 0 mps 729 mmHg 41%
    13:00 +32°C° 0 mm 0 mps 728 mmHg 39%
    14:00 +33°C° 0 mm 1 mps 728 mmHg 40%
    15:00 +33°C° 0 mm 1 mps 728 mmHg 42%
    16:00 +32°C° 0 mm 1 mps 727 mmHg 43%
    17:00 +30°C° 0 mm 1 mps 727 mmHg 52%
    18:00 +29°C° 0 mm 1 mps 727 mmHg 62%
    19:00 +27°C° 0 mm 1 mps 727 mmHg 71%
    20:00 +26°C° 0 mm 1 mps 727 mmHg 74%
    21:00 +24°C° 0 mm 1 mps 727 mmHg 77%
    22:00 +21°C° 0 mm 0 mps 727 mmHg 80%
    23:00 +21°C° 0 mm 0 mps 727 mmHg 81%

    Day after tomorrow, 24 July, Wednesday

    Time Temperature Precipitation Wind Pressure Humidity
    00:00 +20°C° 0 mm 0 mps 727 mmHg 82%
    01:00 +20°C° 0 mm 0 mps 727 mmHg 83%
    02:00 +19°C° 0 mm 0 mps 727 mmHg 84%
    03:00 +19°C° 0 mm 0 mps 727 mmHg 85%
    04:00 +20°C° 0 mm 1 mps 726 mmHg 85%
    05:00 +20°C° 0 mm 0 mps 726 mmHg 81%
    06:00 +21°C° 0 mm 0 mps 727 mmHg 77%
    07:00 +23°C° 0 mm 0 mps 727 mmHg 73%
    08:00 +24°C° 0 mm 0 mps 727 mmHg 66%
    09:00 +28°C° 0 mm 1 mps 727 mmHg 60%
    10:00 +30°C° 0 mm 1 mps 727 mmHg 53%
    11:00 +31°C° 0 mm 1 mps 727 mmHg 50%
    12:00 +32°C° 0 mm 1 mps 726 mmHg 47%
    13:00 +33°C° 0 mm 1 mps 726 mmHg 44%
    14:00 +32°C° 0 mm 2 mps 726 mmHg 44%
    15:00 +32°C° 0 mm 2 mps 726 mmHg 45%
    16:00 +32°C° 0 mm 2 mps 725 mmHg 46%
    17:00 +30°C° 0 mm 2 mps 725 mmHg 54%
    18:00 +28°C° 0 mm 1 mps 725 mmHg 62%
    19:00 +27°C° 0 mm 1 mps 725 mmHg 71%
    20:00 +26°C° 0 mm 1 mps 726 mmHg 73%
    21:00 +25°C° 0 mm 1 mps 726 mmHg 75%
    22:00 +21°C° 0 mm 0 mps 726 mmHg 77%
    23:00 +21°C° 0 mm 0 mps 726 mmHg 79%

    25 July, Thursday

    Time Temperature Precipitation Wind Pressure Humidity
    00:00 +20°C° 0 mm 0 mps 726 mmHg 80%
    01:00 +20°C° 0 mm 0 mps 726 mmHg 82%
    02:00 +20°C° 0 mm 0 mps 726 mmHg 83%
    03:00 +19°C° 0 mm 0 mps 726 mmHg 84%
    04:00 +21°C° 0 mm 1 mps 726 mmHg 84%
    05:00 +20°C° 0 mm 0 mps 726 mmHg 80%
    06:00 +22°C° 0 mm 0 mps 726 mmHg 75%
    07:00 +23°C° 0 mm 0 mps 727 mmHg 71%
    08:00 +25°C° 0 mm 0 mps 727 mmHg 66%
    09:00 +28°C° 0 mm 1 mps 727 mmHg 61%
    10:00 +30°C° 0 mm 1 mps 727 mmHg 56%
    11:00 +30°C° 0 mm 1 mps 727 mmHg 54%
    12:00 +31°C° 0 mm 1 mps 726 mmHg 51%
    13:00 +32°C° 0 mm 1 mps 726 mmHg 49%
    14:00 +32°C° 0.1 mm 2 mps 726 mmHg 50%
    15:00 +32°C° 0.1 mm 2 mps 726 mmHg 51%
    16:00 +31°C° 0.1 mm 2 mps 725 mmHg 51%
    17:00 +30°C° 0 mm 2 mps 725 mmHg 59%
    18:00 +28°C° 0 mm 1 mps 725 mmHg 66%
    19:00 +27°C° 0 mm 1 mps 725 mmHg 74%
    20:00 +26°C° 0 mm 1 mps 725 mmHg 76%
    21:00 +25°C° 0 mm 1 mps 725 mmHg 77%
    22:00 +21°C° 0 mm 0 mps 726 mmHg 79%
    23:00 +21°C° 0 mm 0 mps 725 mmHg 81%

    26 July, Friday

    Time Temperature Precipitation Wind Pressure Humidity
    00:00 +22°C° 0 mm 1 mps 725 mmHg 82%
    01:00 +22°C° 0 mm 1 mps 725 mmHg 84%
    02:00 +20°C° 0 mm 0 mps 725 mmHg 86%
    03:00 +19°C° 0 mm 0 mps 725 mmHg 87%
    04:00 +19°C° 0 mm 0 mps 724 mmHg 89%
    05:00 +20°C° 0 mm 0 mps 724 mmHg 85%
    06:00 +21°C° 0 mm 0 mps 725 mmHg 81%
    07:00 +23°C° 0 mm 0 mps 725 mmHg 77%
    08:00 +26°C° 0 mm 1 mps 725 mmHg 73%
    09:00 +27°C° 0 mm 1 mps 725 mmHg 69%
    10:00 +28°C° 0 mm 1 mps 725 mmHg 66%
    11:00 +28°C° 0 mm 1 mps 724 mmHg 65%
    12:00 +28°C° 0 mm 1 mps 724 mmHg 65%
    13:00 +29°C° 0 mm 1 mps 724 mmHg 64%
    14:00 +29°C° 0.3 mm 1 mps 723 mmHg 66%
    15:00 +29°C° 0.3 mm 1 mps 723 mmHg 68%
    16:00 +29°C° 0.3 mm 2 mps 723 mmHg 70%
    17:00 +28°C° 0.5 mm 1 mps 723 mmHg 75%
    18:00 +26°C° 0.5 mm 1 mps 722 mmHg 80%
    19:00 +25°C° 0.5 mm 1 mps 722 mmHg 86%
    20:00 +24°C° 0.1 mm 1 mps 722 mmHg 87%
    21:00 +22°C° 0.1 mm 0 mps 723 mmHg 88%
    22:00 +21°C° 0.1 mm 0 mps 723 mmHg 89%
    23:00 +20°C° 0.2 mm 0 mps 723 mmHg 90%

    27 July, Saturday

    Time Temperature Precipitation Wind Pressure Humidity
    00:00 +20°C° 0.2 mm 0 mps 723 mmHg 91%
    01:00 +20°C° 0.2 mm 0 mps 723 mmHg 92%
    02:00 +20°C° 0 mm 0 mps 722 mmHg 92%
    03:00 +19°C° 0 mm 0 mps 722 mmHg 92%
    04:00 +19°C° 0 mm 0 mps 722 mmHg 92%
    05:00 +20°C° 0 mm 0 mps 722 mmHg 90%
    06:00 +21°C° 0 mm 0 mps 722 mmHg 88%
    07:00 +22°C° 0 mm 0 mps 723 mmHg 86%
    08:00 +23°C° 0.2 mm 0 mps 723 mmHg 80%
    09:00 +26°C° 0.2 mm 1 mps 723 mmHg 74%
    10:00 +27°C° 0.2 mm 1 mps 723 mmHg 68%
    11:00 +28°C° 0.5 mm 1 mps 723 mmHg 66%
    12:00 +28°C° 0.5 mm 1 mps 723 mmHg 64%
    13:00 +29°C° 0.5 mm 1 mps 722 mmHg 62%
    14:00 +29°C° 0.3 mm 1 mps 722 mmHg 63%
    15:00 +28°C° 0.3 mm 1 mps 722 mmHg 64%
    16:00 +28°C° 0.3 mm 1 mps 722 mmHg 65%
    17:00 +27°C° 0.1 mm 1 mps 722 mmHg 70%
    18:00 +26°C° 0.1 mm 1 mps 722 mmHg 74%
    19:00 +23°C° 0.1 mm 0 mps 722 mmHg 79%
    20:00 +22°C° 0.2 mm 0 mps 722 mmHg 81%
    21:00 +23°C° 0.2 mm 1 mps 722 mmHg 83%
    22:00 +22°C° 0.2 mm 1 mps 722 mmHg 86%
    23:00 +22°C° 0.2 mm 1 mps 723 mmHg 87%
    Show more